Date String (YYYY-MM-DD hh:mm:ss) UTC,Instrument flags,Ambient pressure (hPa),Sample flow (lpm),Bypass flow (lpm),Sample temperature (°C),Ambient temperature (°C),ASC tube jacket temperature (°C),LED temperature (°C),Box temperature (°C),Sample RH (%),Span deviation,Mass concentration (μg/m³),Mass concentration (μg/m³),Mass concentration (μg/m³)
DateTimeUTC,F1_M11,P_M11,Q1_M11,Q2_M11,T1_M11,T2_M11,T3_M11,T4_M11,T5_M11,U1_M11,ZSPAN_M11,X2_M11,X0_M11,X1_M11
2023-04-09 08:00:00,,0833.0,4.99,0.00,24.8,23.1,00.0,33.2,26.4,14.2,0000.0,0003.13,0007.75,0001.77
2023-04-09 08:01:00,,0833.0,5.00,0.00,24.8,23.1,00.0,33.2,26.4,14.2,0000.0,0003.10,0007.79,0001.77
2023-04-09 08:02:00,,0833.0,5.01,0.00,24.8,23.1,00.0,33.2,26.4,14.2,0000.0,0003.12,0007.98,0001.76
2023-04-09 08:03:00,,0833.2,5.00,0.00,24.8,23.1,00.0,33.2,26.4,14.1,0000.0,0003.08,0007.71,0001.75
2023-04-09 08:04:00,,0833.0,4.98,0.00,24.8,23.1,00.0,33.2,26.4,14.0,0000.0,0003.08,0008.10,0001.74
2023-04-09 08:05:00,,0833.0,5.01,0.00,24.8,23.1,00.0,33.2,26.4,14.0,0000.0,0003.07,0008.18,0001.73
2023-04-09 08:06:00,,0833.4,5.01,0.00,24.8,23.1,00.0,33.2,26.3,13.9,0000.0,0003.04,0008.30,0001.72
2023-04-09 08:07:00,,0833.4,4.99,0.00,24.8,23.0,00.0,33.2,26.3,13.8,0000.0,0002.99,0008.24,0001.70
2023-04-09 08:08:00,,0833.4,5.00,0.00,24.8,23.0,00.0,33.2,26.3,13.8,0000.0,0002.98,0008.19,0001.69
2023-04-09 08:09:00,,0833.3,5.01,0.00,24.8,23.0,00.0,33.1,26.3,14.0,0000.0,0002.96,0008.20,0001.68
2023-04-09 08:10:00,,0833.1,5.01,0.00,24.8,23.0,00.0,33.1,26.3,13.9,0000.0,0002.95,0008.23,0001.67
2023-04-09 08:11:00,,0833.0,5.02,0.00,24.7,23.0,00.0,33.1,26.3,13.8,0000.0,0002.93,0007.88,0001.64
2023-04-09 08:12:00,,0833.1,5.01,0.00,24.7,23.0,00.0,33.1,26.3,13.9,0000.0,0002.92,0007.75,0001.62
2023-04-09 08:13:00,,0833.2,5.00,0.00,24.7,23.0,00.0,33.1,26.3,13.9,0000.0,0002.87,0007.55,0001.61
2023-04-09 08:14:00,,0833.0,5.00,0.00,24.7,22.9,00.0,33.1,26.3,14.0,0000.0,0002.84,0007.59,0001.59
2023-04-09 08:15:00,,0833.3,4.99,0.00,24.7,22.9,00.0,33.1,26.3,14.4,0000.0,0002.79,0006.54,0001.59
2023-04-09 08:16:00,,0833.2,5.00,0.00,24.7,22.9,00.0,33.1,26.2,14.6,0000.0,0002.75,0007.00,0001.62
2023-04-09 08:17:00,,0833.1,5.01,0.00,24.7,22.9,00.0,33.1,26.3,14.5,0000.0,0002.75,0007.20,0001.65
2023-04-09 08:18:00,,0833.4,5.00,0.00,24.7,22.9,00.0,33.1,26.2,14.6,0000.0,0002.81,0007.17,0001.67
2023-04-09 08:19:00,,0833.1,4.99,0.00,24.7,22.9,00.0,33.1,26.2,14.5,0000.0,0002.83,0007.08,0001.68
2023-04-09 08:20:00,,0833.2,4.99,0.00,24.7,22.9,00.0,33.0,26.2,14.3,0000.0,0002.87,0007.16,0001.70
2023-04-09 08:21:00,,0833.1,5.01,0.00,24.6,22.9,00.0,33.0,26.2,14.2,0000.0,0002.89,0007.18,0001.72
2023-04-09 08:22:00,,0833.2,5.01,0.00,24.6,22.9,00.0,33.0,26.2,14.1,0000.0,0002.90,0007.14,0001.73
2023-04-09 08:23:00,,0833.1,5.00,0.00,24.6,22.9,00.0,33.0,26.2,14.1,0000.0,0002.89,0007.02,0001.73
2023-04-09 08:24:00,,0833.1,4.99,0.00,24.6,22.8,00.0,33.0,26.2,14.2,0000.0,0002.94,0007.15,0001.74
2023-04-09 08:25:00,,0833.4,4.99,0.00,24.6,22.8,00.0,33.0,26.1,14.3,0000.0,0002.99,0007.23,0001.77
2023-04-09 08:26:00,,0833.3,4.99,0.00,24.6,22.8,00.0,33.0,26.1,14.4,0000.0,0003.02,0007.52,0001.78
2023-04-09 08:27:00,,0833.1,5.00,0.00,24.6,22.8,00.0,33.0,26.1,14.4,0000.0,0003.04,0007.77,0001.77
2023-04-09 08:28:00,,0833.4,5.01,0.00,24.6,22.8,00.0,33.0,26.1,14.5,0000.0,0003.10,0007.57,0001.77
2023-04-09 08:29:00,,0833.4,5.00,0.00,24.6,22.8,00.0,33.0,26.1,14.6,0000.0,0003.09,0007.64,0001.76
2023-04-09 08:30:00,,0833.4,5.00,0.00,24.6,22.8,00.0,33.0,26.1,14.7,0000.0,0003.10,0007.86,0001.75
2023-04-09 08:31:00,,0833.3,5.00,0.00,24.5,22.8,00.0,33.0,26.1,14.6,0000.0,0003.07,0007.95,0001.73
2023-04-09 08:32:00,,0833.4,5.00,0.00,24.5,22.8,00.0,32.9,26.1,14.6,0000.0,0003.08,0007.88,0001.74
2023-04-09 08:33:00,,0833.2,5.00,0.00,24.5,22.8,00.0,32.9,26.1,14.6,0000.0,0003.11,0008.26,0001.75
2023-04-09 08:34:00,,0833.1,5.00,0.00,24.5,22.8,00.0,32.9,26.1,14.6,0000.0,0003.14,0009.14,0001.77
2023-04-09 08:35:00,,0833.1,5.00,0.00,24.5,22.8,00.0,32.9,26.1,14.6,0000.0,0003.14,0009.39,0001.79
2023-04-09 08:36:00,,0833.1,5.00,0.00,24.5,22.8,00.0,32.9,26.1,14.6,0000.0,0003.13,0010.30,0001.79
2023-04-09 08:37:00,,0833.1,5.00,0.00,24.5,22.8,00.0,32.9,26.1,14.6,0000.0,0003.16,0010.80,0001.79
2023-04-09 08:38:00,,0833.1,5.00,0.00,24.5,22.8,00.0,32.9,26.1,14.7,0000.0,0003.18,0011.12,0001.79
2023-04-09 08:39:00,,0833.1,5.00,0.00,24.5,22.8,00.0,32.9,26.1,14.7,0000.0,0003.17,0011.04,0001.78
2023-04-09 08:40:00,,0833.2,5.00,0.00,24.5,22.9,00.0,32.9,26.1,14.7,0000.0,0003.16,0011.10,0001.78
2023-04-09 08:41:00,,0833.2,5.01,0.00,24.5,22.9,00.0,32.9,26.1,14.7,0000.0,0003.14,0010.88,0001.79
2023-04-09 08:42:00,,0833.1,5.00,0.00,24.5,22.9,00.0,32.9,26.1,14.8,0000.0,0003.14,0010.81,0001.80
2023-04-09 08:43:00,,0833.1,5.00,0.00,24.5,22.9,00.0,32.9,26.2,14.8,0000.0,0003.14,0011.08,0001.82
2023-04-09 08:44:00,,0833.1,4.99,0.00,24.5,22.9,00.0,32.9,26.2,14.8,0000.0,0003.15,0011.15,0001.82
2023-04-09 08:45:00,,0833.2,5.00,0.00,24.5,22.9,00.0,32.9,26.1,14.8,0000.0,0003.11,0010.26,0001.82
2023-04-09 08:46:00,,0833.2,5.00,0.00,24.5,22.9,00.0,32.9,26.1,14.8,0000.0,0003.12,0010.22,0001.82
2023-04-09 08:47:00,,0833.2,5.00,0.00,24.5,22.8,00.0,32.9,26.1,14.8,0000.0,0003.16,0009.41,0001.84
2023-04-09 08:48:00,,0833.2,5.00,0.00,24.5,22.8,00.0,32.9,26.1,14.7,0000.0,0003.16,0008.79,0001.84
2023-04-09 08:49:00,,0833.2,5.00,0.00,24.5,22.8,00.0,32.9,26.1,14.8,0000.0,0003.22,0008.14,0001.84
2023-04-09 08:50:00,,0833.2,5.00,0.00,24.5,22.8,00.0,32.9,26.1,14.8,0000.0,0003.26,0008.29,0001.85
2023-04-09 08:51:00,,0833.2,5.00,0.00,24.5,22.8,00.0,32.8,26.1,14.8,0000.0,0003.32,0008.40,0001.86
2023-04-09 08:52:00,,0833.1,5.00,0.00,24.5,22.8,00.0,32.8,26.1,14.8,0000.0,0003.38,0009.15,0001.87
2023-04-09 08:53:00,,0833.2,5.00,0.00,24.5,22.8,00.0,32.8,26.1,14.8,0000.0,0003.38,0009.99,0001.87
2023-04-09 08:54:00,,0833.2,5.00,0.00,24.5,22.8,00.0,32.8,26.1,14.8,0000.0,0003.33,0009.74,0001.85
2023-04-09 08:55:00,,0833.2,5.00,0.00,24.5,22.8,00.0,32.8,26.1,14.7,0000.0,0003.30,0010.41,0001.84
2023-04-09 08:56:00,,0833.2,4.99,0.00,24.5,22.8,00.0,32.8,26.1,14.8,0000.0,0003.34,0010.64,0001.83
2023-04-09 08:57:00,,0833.1,5.00,0.00,24.5,22.8,00.0,32.8,26.1,14.8,0000.0,0003.35,0010.45,0001.82
2023-04-09 08:58:00,,0833.2,5.00,0.00,24.5,22.8,00.0,32.8,26.1,14.8,0000.0,0003.34,0010.54,0001.81
2023-04-09 08:59:00,,0833.1,4.99,0.00,24.5,22.8,00.0,32.8,26.1,14.8,0000.0,0003.36,0010.65,0001.82
